Time,TemperatureF,DewpointF,PressureIn,WindDirection,WindDirectionDegrees,WindSpeedMPH,WindSpeedGustMPH,Humidity,HourlyPrecipIn,Conditions,Clouds,dailyrainin,SoftwareType,DateUTC
2013-07-20 00:00:00,60.8,60.5,30.38,South,180,1.6,4.5,99,0.00,,,0.00,pywws,2013-07-19 23:00:00,
2013-07-20 00:03:00,60.4,60.2,30.37,East,90,0.0,2.2,99,0.00,,,0.00,pywws,2013-07-19 23:03:00,
2013-07-20 00:08:00,60.4,60.2,30.38,SE,135,0.7,1.6,99,0.00,,,0.00,pywws,2013-07-19 23:08:00,
2013-07-20 00:13:00,60.4,60.2,30.38,SW,225,0.7,2.2,99,0.00,,,0.00,pywws,2013-07-19 23:13:00,
2013-07-20 00:18:00,60.3,60.0,30.38,SE,135,0.0,1.6,99,0.00,,,0.00,pywws,2013-07-19 23:18:00,
2013-07-20 00:23:00,60.1,59.8,30.38,East,90,0.0,0.7,99,0.00,,,0.00,pywws,2013-07-19 23:23:00,
2013-07-20 00:28:00,59.9,59.6,30.38,East,90,0.0,1.6,99,0.00,,,0.00,pywws,2013-07-19 23:28:00,
2013-07-20 00:33:00,59.7,59.4,30.38,South,180,0.7,2.2,99,0.00,,,0.00,pywws,2013-07-19 23:33:00,
2013-07-20 00:38:00,59.7,59.4,30.38,SE,135,0.0,1.6,99,0.00,,,0.00,pywws,2013-07-19 23:38:00,
2013-07-20 00:43:00,59.7,59.4,30.38,East,90,0.0,0.0,99,0.00,,,0.00,pywws,2013-07-19 23:43:00,
2013-07-20 00:48:00,59.5,59.3,30.38,East,90,0.0,0.7,99,0.00,,,0.00,pywws,2013-07-19 23:48:00,
2013-07-20 00:53:00,59.5,59.3,30.38,East,90,0.0,1.6,99,0.00,,,0.00,pywws,2013-07-19 23:53:00,
2013-07-20 00:58:00,59.4,59.1,30.38,NE,45,0.0,0.7,99,0.00,,,0.00,pywws,2013-07-19 23:58:00,
2013-07-20 01:08:00,59.0,58.7,30.39,East,90,0.0,0.7,99,0.00,,,0.00,pywws,2013-07-20 00:08:00,
2013-07-20 01:13:00,58.8,58.5,30.38,East,90,0.0,0.7,99,0.00,,,0.00,pywws,2013-07-20 00:13:00,
2013-07-20 01:18:00,58.3,58.0,30.38,East,90,0.0,0.0,99,0.00,,,0.00,pywws,2013-07-20 00:18:00,
2013-07-20 01:23:00,57.7,57.5,30.38,East,90,0.0,0.0,99,0.00,,,0.00,pywws,2013-07-20 00:23:00,
2013-07-20 01:28:00,57.6,57.3,30.38,NW,315,0.0,0.7,99,0.00,,,0.00,pywws,2013-07-20 00:28:00,
2013-07-20 01:33:00,57.4,57.1,30.38,NW,315,0.0,0.0,99,0.00,,,0.00,pywws,2013-07-20 00:33:00,
2013-07-20 01:38:00,57.0,56.7,30.38,NW,315,0.0,0.0,99,0.00,,,0.00,pywws,2013-07-20 00:38:00,
2013-07-20 01:43:00,56.5,56.2,30.38,NW,315,0.0,0.0,99,0.00,,,0.00,pywws,2013-07-20 00:43:00,
2013-07-20 01:48:00,55.9,55.7,30.38,NW,315,0.0,0.0,99,0.00,,,0.00,pywws,2013-07-20 00:48:00,
2013-07-20 02:01:00,55.6,55.3,30.38,NW,315,0.0,0.0,99,0.00,,,0.00,pywws,2013-07-20 01:01:00,
2013-07-20 02:03:00,55.4,55.1,30.39,NW,315,0.0,0.0,99,0.00,,,0.00,pywws,2013-07-20 01:03:00,
2013-07-20 02:08:00,55.2,54.9,30.39,NW,315,0.0,0.0,99,0.00,,,0.00,pywws,2013-07-20 01:08:00,
2013-07-20 02:13:00,55.2,54.9,30.39,East,90,0.0,0.7,99,0.00,,,0.00,pywws,2013-07-20 01:13:00,
2013-07-20 02:18:00,55.2,54.9,30.38,East,90,0.0,0.0,99,0.00,,,0.00,pywws,2013-07-20 01:18:00,
2013-07-20 02:23:00,55.0,54.8,30.38,East,90,0.0,0.0,99,0.00,,,0.00,pywws,2013-07-20 01:23:00,
2013-07-20 02:28:00,54.9,54.6,30.38,East,90,0.0,0.0,99,0.00,,,0.00,pywws,2013-07-20 01:28:00,
2013-07-20 02:33:00,54.7,54.4,30.38,East,90,0.0,0.0,99,0.00,,,0.00,pywws,2013-07-20 01:33:00,
2013-07-20 02:38:00,54.5,54.2,30.39,East,90,0.0,0.0,99,0.00,,,0.00,pywws,2013-07-20 01:38:00,
2013-07-20 02:43:00,54.1,53.9,30.38,East,90,0.0,0.0,99,0.00,,,0.00,pywws,2013-07-20 01:43:00,
2013-07-20 02:48:00,53.8,53.5,30.38,East,90,0.0,0.0,99,0.00,,,0.00,pywws,2013-07-20 01:48:00,
2013-07-20 03:01:00,53.6,53.3,30.39,East,90,0.0,0.0,99,0.00,,,0.00,pywws,2013-07-20 02:01:00,
2013-07-20 03:03:00,53.4,53.1,30.38,East,90,0.0,0.0,99,0.00,,,0.00,pywws,2013-07-20 02:03:00,
2013-07-20 03:08:00,53.4,53.1,30.38,East,90,0.0,0.0,99,0.00,,,0.00,pywws,2013-07-20 02:08:00,
2013-07-20 03:13:00,53.2,53.0,30.39,East,90,0.0,0.0,99,0.00,,,0.00,pywws,2013-07-20 02:13:00,
2013-07-20 03:18:00,53.2,53.0,30.39,East,90,0.0,0.0,99,0.00,,,0.00,pywws,2013-07-20 02:18:00,
2013-07-20 03:23:00,53.1,52.8,30.39,East,90,0.0,0.0,99,0.00,,,0.00,pywws,2013-07-20 02:23:00,
2013-07-20 03:28:00,52.7,52.4,30.38,East,90,0.0,0.0,99,0.00,,,0.00,pywws,2013-07-20 02:28:00,
2013-07-20 03:33:00,52.9,52.6,30.38,East,90,0.0,0.0,99,0.00,,,0.00,pywws,2013-07-20 02:33:00,
2013-07-20 03:38:00,52.9,52.6,30.38,East,90,0.0,0.0,99,0.00,,,0.00,pywws,2013-07-20 02:38:00,
2013-07-20 03:43:00,52.9,52.6,30.38,East,90,0.0,0.0,99,0.00,,,0.00,pywws,2013-07-20 02:43:00,
2013-07-20 03:48:00,52.7,52.4,30.38,East,90,0.0,0.0,99,0.00,,,0.00,pywws,2013-07-20 02:48:00,
2013-07-20 04:01:00,52.7,52.4,30.38,East,90,0.0,0.0,99,0.00,,,0.00,pywws,2013-07-20 03:01:00,
2013-07-20 04:03:00,52.0,51.7,30.38,East,90,0.0,0.0,99,0.00,,,0.00,pywws,2013-07-20 03:03:00,
2013-07-20 04:08:00,52.0,51.7,30.38,East,90,0.0,0.0,99,0.00,,,0.00,pywws,2013-07-20 03:08:00,
2013-07-20 04:13:00,51.6,51.3,30.38,East,90,0.0,0.0,99,0.00,,,0.00,pywws,2013-07-20 03:13:00,
2013-07-20 04:18:00,51.6,51.3,30.38,East,90,0.0,0.0,99,0.00,,,0.00,pywws,2013-07-20 03:18:00,
2013-07-20 04:23:00,52.0,51.7,30.38,East,90,0.0,0.0,99,0.00,,,0.00,pywws,2013-07-20 03:23:00,
2013-07-20 04:28:00,51.8,51.5,30.39,East,90,0.0,0.0,99,0.00,,,0.00,pywws,2013-07-20 03:28:00,
2013-07-20 04:33:00,52.0,51.7,30.38,East,90,0.0,0.0,99,0.00,,,0.00,pywws,2013-07-20 03:33:00,
2013-07-20 04:38:00,52.0,51.7,30.38,East,90,0.0,0.0,99,0.00,,,0.00,pywws,2013-07-20 03:38:00,
2013-07-20 04:43:00,52.0,51.7,30.38,East,90,0.0,0.0,99,0.00,,,0.00,pywws,2013-07-20 03:43:00,
2013-07-20 04:48:00,51.6,51.3,30.38,East,90,0.0,0.0,99,0.00,,,0.00,pywws,2013-07-20 03:48:00,
2013-07-20 05:00:00,51.8,51.5,30.38,East,90,0.0,0.0,99,0.00,,,0.00,pywws,2013-07-20 04:00:00,
2013-07-20 05:03:00,51.4,51.2,30.39,East,90,0.0,0.0,99,0.00,,,0.00,pywws,2013-07-20 04:03:00,
2013-07-20 05:08:00,51.4,51.2,30.38,East,90,0.0,0.0,99,0.00,,,0.00,pywws,2013-07-20 04:08:00,
2013-07-20 05:13:00,51.3,51.0,30.38,East,90,0.0,0.0,99,0.00,,,0.00,pywws,2013-07-20 04:13:00,
2013-07-20 05:18:00,51.3,51.0,30.38,East,90,0.0,0.0,99,0.00,,,0.00,pywws,2013-07-20 04:18:00,
2013-07-20 05:23:00,51.3,51.0,30.38,East,90,0.0,0.0,99,0.00,,,0.00,pywws,2013-07-20 04:23:00,
2013-07-20 05:28:00,51.3,51.0,30.39,East,90,0.0,0.0,99,0.00,,,0.00,pywws,2013-07-20 04:28:00,
2013-07-20 05:33:00,51.1,50.8,30.39,East,90,0.0,0.0,99,0.00,,,0.00,pywws,2013-07-20 04:33:00,
2013-07-20 05:38:00,51.4,51.2,30.39,East,90,0.0,0.0,99,0.00,,,0.00,pywws,2013-07-20 04:38:00,
2013-07-20 05:43:00,51.6,51.3,30.39,East,90,0.0,0.0,99,0.00,,,0.00,pywws,2013-07-20 04:43:00,
2013-07-20 05:48:00,52.2,51.9,30.39,East,90,0.0,0.0,99,0.00,,,0.00,pywws,2013-07-20 04:48:00,
2013-07-20 06:01:00,52.7,52.4,30.38,East,90,0.0,0.0,99,0.00,,,0.00,pywws,2013-07-20 05:01:00,
2013-07-20 06:03:00,53.8,53.5,30.39,East,90,0.0,0.0,99,0.00,,,0.00,pywws,2013-07-20 05:03:00,
2013-07-20 06:08:00,54.5,54.2,30.39,SE,135,0.0,0.7,99,0.00,,,0.00,pywws,2013-07-20 05:08:00,
2013-07-20 06:13:00,55.4,55.1,30.39,SE,135,0.0,0.7,99,0.00,,,0.00,pywws,2013-07-20 05:13:00,
2013-07-20 06:18:00,56.1,55.8,30.39,South,180,1.6,3.8,99,0.00,,,0.00,pywws,2013-07-20 05:18:00,
2013-07-20 06:23:00,56.3,56.0,30.39,West,270,0.7,1.6,99,0.00,,,0.00,pywws,2013-07-20 05:23:00,
2013-07-20 06:28:00,56.5,56.2,30.39,NW,315,0.0,2.2,99,0.00,,,0.00,pywws,2013-07-20 05:28:00,
2013-07-20 06:33:00,56.5,56.2,30.38,East,90,0.0,1.6,99,0.00,,,0.00,pywws,2013-07-20 05:33:00,
2013-07-20 06:38:00,56.8,56.6,30.39,NW,315,0.0,0.7,99,0.00,,,0.00,pywws,2013-07-20 05:38:00,
2013-07-20 06:43:00,57.2,56.9,30.38,East,90,0.0,0.7,99,0.00,,,0.00,pywws,2013-07-20 05:43:00,
2013-07-20 06:48:00,57.4,57.1,30.38,North,0,0.0,1.6,99,0.00,,,0.00,pywws,2013-07-20 05:48:00,
2013-07-20 07:01:00,57.0,56.7,30.39,SW,225,0.7,2.2,99,0.00,,,0.00,pywws,2013-07-20 06:01:00,
2013-07-20 07:03:00,57.4,57.1,30.39,East,90,0.0,1.6,99,0.00,,,0.00,pywws,2013-07-20 06:03:00,
2013-07-20 07:08:00,58.1,57.8,30.38,NW,315,0.0,1.6,99,0.00,,,0.00,pywws,2013-07-20 06:08:00,
2013-07-20 07:13:00,58.3,58.0,30.38,NW,315,0.0,0.7,99,0.00,,,0.00,pywws,2013-07-20 06:13:00,
2013-07-20 07:18:00,58.5,58.2,30.38,South,180,0.0,0.7,99,0.00,,,0.00,pywws,2013-07-20 06:18:00,
2013-07-20 07:23:00,59.2,58.9,30.38,South,180,0.7,1.6,99,0.00,,,0.00,pywws,2013-07-20 06:23:00,
2013-07-20 07:28:00,60.6,60.3,30.38,SE,135,0.7,1.6,99,0.00,,,0.00,pywws,2013-07-20 06:28:00,
2013-07-20 07:33:00,61.2,60.9,30.38,SE,135,0.0,2.2,99,0.00,,,0.00,pywws,2013-07-20 06:33:00,
2013-07-20 07:38:00,62.1,61.8,30.38,South,180,1.6,4.5,99,0.00,,,0.00,pywws,2013-07-20 06:38:00,
2013-07-20 07:43:00,62.8,62.5,30.38,SE,135,0.0,2.2,99,0.00,,,0.00,pywws,2013-07-20 06:43:00,
2013-07-20 07:48:00,63.5,62.3,30.38,NE,45,1.6,4.5,96,0.00,,,0.00,pywws,2013-07-20 06:48:00,
2013-07-20 08:01:00,64.0,61.7,30.38,South,180,3.1,5.4,92,0.00,,,0.00,pywws,2013-07-20 07:01:00,
2013-07-20 08:03:00,64.9,61.9,30.38,West,270,0.0,3.1,90,0.00,,,0.00,pywws,2013-07-20 07:03:00,
2013-07-20 08:08:00,66.0,62.0,30.38,NW,315,0.0,1.6,87,0.00,,,0.00,pywws,2013-07-20 07:08:00,
2013-07-20 08:13:00,67.6,63.6,30.38,NW,315,0.0,1.6,87,0.00,,,0.00,pywws,2013-07-20 07:13:00,
2013-07-20 08:18:00,67.8,62.8,30.38,NW,315,0.7,1.6,84,0.00,,,0.00,pywws,2013-07-20 07:18:00,
2013-07-20 08:23:00,66.7,61.7,30.38,West,270,0.0,0.7,84,0.00,,,0.00,pywws,2013-07-20 07:23:00,
2013-07-20 08:28:00,66.2,61.6,30.38,North,0,0.0,0.7,85,0.00,,,0.00,pywws,2013-07-20 07:28:00,
2013-07-20 08:33:00,66.0,61.4,30.38,North,0,0.0,1.6,85,0.00,,,0.00,pywws,2013-07-20 07:33:00,
2013-07-20 08:38:00,65.5,60.8,30.38,South,180,0.0,1.6,85,0.00,,,0.00,pywws,2013-07-20 07:38:00,
2013-07-20 08:43:00,64.2,59.6,30.38,East,90,3.1,5.4,85,0.00,,,0.00,pywws,2013-07-20 07:43:00,
2013-07-20 08:48:00,63.7,60.4,30.37,ESE,112,1.6,3.1,89,0.00,,,0.00,pywws,2013-07-20 07:48:00,
2013-07-20 09:01:00,64.0,60.7,30.37,NW,315,0.7,3.1,89,0.00,,,0.00,pywws,2013-07-20 08:01:00,
2013-07-20 09:03:00,64.4,61.1,30.38,ESE,112,1.6,3.8,89,0.00,,,0.00,pywws,2013-07-20 08:03:00,
2013-07-20 09:08:00,64.8,60.8,30.38,SE,135,1.6,3.1,87,0.00,,,0.00,pywws,2013-07-20 08:08:00,
2013-07-20 09:13:00,65.1,60.5,30.38,SE,135,1.6,3.8,85,0.00,,,0.00,pywws,2013-07-20 08:13:00,
2013-07-20 09:18:00,64.9,60.6,30.38,South,180,1.6,3.8,86,0.00,,,0.00,pywws,2013-07-20 08:18:00,
2013-07-20 09:23:00,64.9,60.6,30.38,SE,135,2.2,3.8,86,0.00,,,0.00,pywws,2013-07-20 08:23:00,
2013-07-20 09:28:00,65.5,61.5,30.38,South,180,2.2,4.5,87,0.00,,,0.00,pywws,2013-07-20 08:28:00,
2013-07-20 09:33:00,66.2,61.2,30.38,West,270,1.6,4.5,84,0.00,,,0.00,pywws,2013-07-20 08:33:00,
2013-07-20 09:38:00,65.7,61.0,30.38,NE,45,0.7,1.6,85,0.00,,,0.00,pywws,2013-07-20 08:38:00,
2013-07-20 09:43:00,65.7,61.0,30.38,SW,225,1.6,3.8,85,0.00,,,0.00,pywws,2013-07-20 08:43:00,
2013-07-20 09:48:00,66.0,61.4,30.38,ENE,68,2.2,3.8,85,0.00,,,0.00,pywws,2013-07-20 08:48:00,
2013-07-20 10:01:00,65.5,60.5,30.38,SE,135,2.2,4.5,84,0.00,,,0.00,pywws,2013-07-20 09:01:00,
2013-07-20 10:03:00,64.9,61.0,30.38,NE,45,3.1,4.5,87,0.00,,,0.00,pywws,2013-07-20 09:03:00,
2013-07-20 10:08:00,65.1,61.1,30.38,SE,135,2.2,6.0,87,0.00,,,0.00,pywws,2013-07-20 09:08:00,
2013-07-20 10:13:00,66.9,61.6,30.37,SE,135,2.2,6.0,83,0.00,,,0.00,pywws,2013-07-20 09:13:00,
2013-07-20 10:18:00,67.8,62.5,30.38,West,270,1.6,3.8,83,0.00,,,0.00,pywws,2013-07-20 09:18:00,
2013-07-20 10:23:00,68.4,62.6,30.38,SSE,158,3.1,6.9,82,0.00,,,0.00,pywws,2013-07-20 09:23:00,
2013-07-20 10:28:00,68.7,63.0,30.38,NW,315,1.6,3.8,82,0.00,,,0.00,pywws,2013-07-20 09:28:00,
2013-07-20 10:33:00,69.1,62.6,30.38,SE,135,1.6,3.1,80,0.00,,,0.00,pywws,2013-07-20 09:33:00,
2013-07-20 10:38:00,69.6,62.8,30.38,SE,135,1.6,3.1,79,0.00,,,0.00,pywws,2013-07-20 09:38:00,
2013-07-20 10:43:00,70.5,63.3,30.37,South,180,0.7,3.8,78,0.00,,,0.00,pywws,2013-07-20 09:43:00,
2013-07-20 10:48:00,69.4,62.3,30.37,NE,45,3.1,4.5,78,0.00,,,0.00,pywws,2013-07-20 09:48:00,
2013-07-20 11:01:00,69.1,62.3,30.38,East,90,1.6,3.8,79,0.00,,,0.00,pywws,2013-07-20 10:01:00,
2013-07-20 11:03:00,70.0,63.2,30.37,SW,225,2.2,4.5,79,0.00,,,0.00,pywws,2013-07-20 10:03:00,
2013-07-20 11:08:00,70.0,61.7,30.37,NE,45,3.8,6.0,75,0.00,,,0.00,pywws,2013-07-20 10:08:00,
2013-07-20 11:13:00,69.6,62.8,30.37,SSE,158,1.6,4.5,79,0.00,,,0.00,pywws,2013-07-20 10:13:00,
2013-07-20 11:18:00,70.2,62.2,30.37,South,180,3.1,5.4,76,0.00,,,0.00,pywws,2013-07-20 10:18:00,
2013-07-20 11:23:00,69.8,62.6,30.36,NW,315,1.6,3.8,78,0.00,,,0.00,pywws,2013-07-20 10:23:00,
2013-07-20 11:28:00,70.0,62.4,30.36,East,90,1.6,4.5,77,0.00,,,0.00,pywws,2013-07-20 10:28:00,
2013-07-20 11:33:00,70.5,62.6,30.36,SW,225,2.2,4.5,76,0.00,,,0.00,pywws,2013-07-20 10:33:00,
2013-07-20 11:38:00,70.9,62.9,30.36,NE,45,2.2,5.4,76,0.00,,,0.00,pywws,2013-07-20 10:38:00,
2013-07-20 11:43:00,69.6,62.1,30.35,East,90,3.8,8.3,77,0.00,,,0.00,pywws,2013-07-20 10:43:00,
2013-07-20 11:48:00,70.0,62.8,30.35,East,90,2.2,4.5,78,0.00,,,0.00,pywws,2013-07-20 10:48:00,
2013-07-20 12:01:00,70.5,63.0,30.35,East,90,2.2,5.4,77,0.00,,,0.00,pywws,2013-07-20 11:01:00,
2013-07-20 12:03:00,70.2,62.6,30.35,SE,135,3.1,4.5,77,0.00,,,0.00,pywws,2013-07-20 11:03:00,
2013-07-20 12:08:00,70.0,61.7,30.35,SW,225,4.5,9.2,75,0.00,,,0.00,pywws,2013-07-20 11:08:00,
2013-07-20 12:13:00,69.6,62.1,30.35,SE,135,3.8,9.2,77,0.00,,,0.00,pywws,2013-07-20 11:13:00,
2013-07-20 12:18:00,70.0,62.4,30.35,East,90,2.2,4.5,77,0.00,,,0.00,pywws,2013-07-20 11:18:00,
2013-07-20 12:23:00,70.7,62.0,30.35,SE,135,3.8,6.0,74,0.00,,,0.00,pywws,2013-07-20 11:23:00,
2013-07-20 12:28:00,70.7,62.4,30.35,SW,225,1.6,6.0,75,0.00,,,0.00,pywws,2013-07-20 11:28:00,
2013-07-20 12:33:00,70.9,62.2,30.35,SE,135,3.8,6.9,74,0.00,,,0.00,pywws,2013-07-20 11:33:00,
2013-07-20 12:38:00,70.2,62.2,30.35,South,180,2.2,5.4,76,0.00,,,0.00,pywws,2013-07-20 11:38:00,
2013-07-20 12:43:00,70.3,62.4,30.34,East,90,3.1,5.4,76,0.00,,,0.00,pywws,2013-07-20 11:43:00,
2013-07-20 12:48:00,70.3,62.0,30.34,East,90,3.8,5.4,75,0.00,,,0.00,pywws,2013-07-20 11:48:00,
2013-07-20 13:01:00,70.2,62.2,30.34,SE,135,2.2,3.8,76,0.00,,,0.00,pywws,2013-07-20 12:01:00,
2013-07-20 13:03:00,69.6,62.1,30.34,East,90,3.1,4.5,77,0.00,,,0.00,pywws,2013-07-20 12:03:00,
2013-07-20 13:08:00,70.3,62.8,30.35,ESE,112,3.1,5.4,77,0.00,,,0.00,pywws,2013-07-20 12:08:00,
2013-07-20 13:13:00,70.0,62.4,30.34,East,90,4.5,9.8,77,0.00,,,0.00,pywws,2013-07-20 12:13:00,
2013-07-20 13:18:00,69.6,62.4,30.34,East,90,3.1,4.5,78,0.00,,,0.00,pywws,2013-07-20 12:18:00,
2013-07-20 13:23:00,70.5,63.0,30.34,NE,45,3.1,6.9,77,0.00,,,0.00,pywws,2013-07-20 12:23:00,
2013-07-20 13:28:00,70.9,62.5,30.34,East,90,2.2,3.8,75,0.00,,,0.00,pywws,2013-07-20 12:28:00,
2013-07-20 13:33:00,71.2,62.5,30.34,SW,225,2.2,5.4,74,0.00,,,0.00,pywws,2013-07-20 12:33:00,
2013-07-20 13:38:00,70.9,62.5,30.34,SE,135,3.1,5.4,75,0.00,,,0.00,pywws,2013-07-20 12:38:00,
2013-07-20 13:43:00,70.9,62.5,30.33,SE,135,2.2,4.5,75,0.00,,,0.00,pywws,2013-07-20 12:43:00,
2013-07-20 13:48:00,71.1,62.3,30.33,SE,135,4.5,9.2,74,0.00,,,0.00,pywws,2013-07-20 12:48:00,
2013-07-20 14:01:00,70.5,62.6,30.33,ESE,112,2.2,4.5,76,0.00,,,0.00,pywws,2013-07-20 13:01:00,
2013-07-20 14:03:00,70.2,62.6,30.33,NE,45,3.8,6.9,77,0.00,,,0.00,pywws,2013-07-20 13:03:00,
2013-07-20 14:08:00,70.2,63.0,30.32,NE,45,2.2,6.0,78,0.00,,,0.00,pywws,2013-07-20 13:08:00,
2013-07-20 14:13:00,70.0,62.4,30.32,SE,135,3.8,6.9,77,0.00,,,0.00,pywws,2013-07-20 13:13:00,
2013-07-20 14:18:00,69.6,62.8,30.32,SE,135,1.6,3.1,79,0.00,,,0.00,pywws,2013-07-20 13:18:00,
2013-07-20 14:23:00,70.2,63.0,30.32,East,90,4.5,6.9,78,0.00,,,0.00,pywws,2013-07-20 13:23:00,
2013-07-20 14:28:00,69.8,63.0,30.32,South,180,2.2,3.8,79,0.00,,,0.00,pywws,2013-07-20 13:28:00,
2013-07-20 14:33:00,70.3,63.5,30.32,East,90,3.1,6.0,79,0.00,,,0.00,pywws,2013-07-20 13:33:00,
2013-07-20 14:38:00,70.3,63.5,30.32,South,180,2.2,5.4,79,0.00,,,0.00,pywws,2013-07-20 13:38:00,
2013-07-20 14:43:00,70.5,63.3,30.32,East,90,1.6,4.5,78,0.00,,,0.00,pywws,2013-07-20 13:43:00,
2013-07-20 14:48:00,70.3,63.1,30.31,North,0,3.1,4.5,78,0.00,,,0.00,pywws,2013-07-20 13:48:00,
2013-07-20 15:00:00,69.8,63.0,30.31,SE,135,3.1,4.5,79,0.00,,,0.00,pywws,2013-07-20 14:00:00,
2013-07-20 15:03:00,69.3,63.2,30.30,NE,45,2.2,5.4,81,0.00,,,0.00,pywws,2013-07-20 14:03:00,
2013-07-20 15:08:00,70.0,63.2,30.30,SSE,158,4.5,9.8,79,0.00,,,0.00,pywws,2013-07-20 14:08:00,
2013-07-20 15:13:00,70.7,63.9,30.30,SE,135,2.2,4.5,79,0.00,,,0.00,pywws,2013-07-20 14:13:00,
2013-07-20 15:18:00,71.1,63.1,30.30,SE,135,4.5,9.2,76,0.00,,,0.00,pywws,2013-07-20 14:18:00,
2013-07-20 15:23:00,70.9,63.3,30.30,South,180,3.1,5.4,77,0.00,,,0.00,pywws,2013-07-20 14:23:00,
2013-07-20 15:28:00,70.9,63.3,30.29,East,90,2.2,3.8,77,0.00,,,0.00,pywws,2013-07-20 14:28:00,
2013-07-20 15:33:00,71.6,63.6,30.29,SSE,158,2.2,4.5,76,0.00,,,0.00,pywws,2013-07-20 14:33:00,
2013-07-20 15:38:00,72.1,64.1,30.29,NE,45,2.2,6.9,76,0.00,,,0.00,pywws,2013-07-20 14:38:00,
2013-07-20 15:43:00,72.5,63.7,30.29,SE,135,3.1,7.6,74,0.00,,,0.00,pywws,2013-07-20 14:43:00,
2013-07-20 15:48:00,72.1,64.1,30.29,WNW,292,1.6,4.5,76,0.00,,,0.00,pywws,2013-07-20 14:48:00,
2013-07-20 16:01:00,72.9,63.7,30.30,ENE,68,3.8,6.9,73,0.00,,,0.00,pywws,2013-07-20 15:01:00,
2013-07-20 16:03:00,72.7,63.1,30.29,South,180,5.4,9.2,72,0.00,,,0.00,pywws,2013-07-20 15:03:00,
2013-07-20 16:08:00,72.5,62.9,30.29,East,90,3.1,5.4,72,0.00,,,0.00,pywws,2013-07-20 15:08:00,
2013-07-20 16:13:00,72.5,62.9,30.29,South,180,3.8,11.4,72,0.00,,,0.00,pywws,2013-07-20 15:13:00,
2013-07-20 16:18:00,72.1,63.0,30.30,SE,135,2.2,5.4,73,0.00,,,0.00,pywws,2013-07-20 15:18:00,
2013-07-20 16:23:00,72.1,63.0,30.30,SW,225,4.5,9.2,73,0.00,,,0.00,pywws,2013-07-20 15:23:00,
2013-07-20 16:28:00,72.3,63.2,30.30,SW,225,3.8,7.6,73,0.00,,,0.00,pywws,2013-07-20 15:28:00,
2013-07-20 16:33:00,72.3,62.8,30.30,South,180,3.8,5.4,72,0.00,,,0.00,pywws,2013-07-20 15:33:00,
2013-07-20 16:38:00,71.6,62.9,30.29,SE,135,3.8,6.9,74,0.00,,,0.00,pywws,2013-07-20 15:38:00,
2013-07-20 16:43:00,70.9,63.3,30.30,SW,225,3.1,6.9,77,0.00,,,0.00,pywws,2013-07-20 15:43:00,
2013-07-20 16:48:00,70.3,63.1,30.29,South,180,3.1,9.2,78,0.00,,,0.00,pywws,2013-07-20 15:48:00,
2013-07-20 17:00:00,70.0,63.2,30.29,South,180,3.1,5.4,79,0.00,,,0.00,pywws,2013-07-20 16:00:00,
2013-07-20 17:03:00,69.4,63.3,30.30,SSE,158,3.8,6.9,81,0.00,,,0.00,pywws,2013-07-20 16:03:00,
2013-07-20 17:08:00,69.6,63.5,30.29,South,180,2.2,5.4,81,0.00,,,0.00,pywws,2013-07-20 16:08:00,
2013-07-20 17:13:00,69.6,63.5,30.29,East,90,3.8,6.9,81,0.00,,,0.00,pywws,2013-07-20 16:13:00,
2013-07-20 17:18:00,69.4,63.7,30.29,East,90,3.1,5.4,82,0.00,,,0.00,pywws,2013-07-20 16:18:00,
2013-07-20 17:23:00,69.3,63.5,30.29,East,90,3.1,7.6,82,0.00,,,0.00,pywws,2013-07-20 16:23:00,
2013-07-20 17:28:00,69.1,63.3,30.29,SW,225,2.2,6.9,82,0.00,,,0.00,pywws,2013-07-20 16:28:00,
2013-07-20 17:33:00,69.1,63.3,30.29,SE,135,1.6,4.5,82,0.00,,,0.00,pywws,2013-07-20 16:33:00,
2013-07-20 17:38:00,69.1,63.3,30.29,SE,135,3.1,6.0,82,0.00,,,0.00,pywws,2013-07-20 16:38:00,
2013-07-20 17:43:00,69.1,63.0,30.29,SE,135,2.2,5.4,81,0.00,,,0.00,pywws,2013-07-20 16:43:00,
2013-07-20 17:48:00,68.9,63.2,30.29,SE,135,1.6,4.5,82,0.00,,,0.00,pywws,2013-07-20 16:48:00,
2013-07-20 18:01:00,68.9,63.2,30.29,East,90,2.2,5.4,82,0.00,,,0.00,pywws,2013-07-20 17:01:00,
2013-07-20 18:03:00,68.2,62.8,30.29,SSE,158,2.2,3.8,83,0.00,,,0.00,pywws,2013-07-20 17:03:00,
2013-07-20 18:08:00,67.6,63.0,30.29,East,90,2.2,5.4,85,0.00,,,0.00,pywws,2013-07-20 17:08:00,
2013-07-20 18:13:00,67.3,62.9,30.29,East,90,1.6,4.5,86,0.00,,,0.00,pywws,2013-07-20 17:13:00,
2013-07-20 18:18:00,67.1,62.8,30.29,East,90,2.2,5.4,86,0.00,,,0.00,pywws,2013-07-20 17:18:00,
2013-07-20 18:23:00,66.9,62.6,30.29,SSE,158,2.2,3.8,86,0.00,,,0.00,pywws,2013-07-20 17:23:00,
2013-07-20 18:28:00,66.7,62.7,30.30,NE,45,2.2,4.5,87,0.00,,,0.00,pywws,2013-07-20 17:28:00,
2013-07-20 18:33:00,66.6,62.9,30.29,NW,315,1.6,2.2,88,0.00,,,0.00,pywws,2013-07-20 17:33:00,
2013-07-20 18:38:00,66.6,62.9,30.29,SE,135,1.6,5.4,88,0.00,,,0.00,pywws,2013-07-20 17:38:00,
2013-07-20 18:43:00,66.4,62.7,30.29,SE,135,1.6,3.8,88,0.00,,,0.00,pywws,2013-07-20 17:43:00,
2013-07-20 18:48:00,66.2,62.9,30.29,NE,45,2.2,5.4,89,0.00,,,0.00,pywws,2013-07-20 17:48:00,
2013-07-20 19:01:00,65.8,62.5,30.29,East,90,3.1,5.4,89,0.00,,,0.00,pywws,2013-07-20 18:01:00,
2013-07-20 19:03:00,65.5,62.8,30.29,East,90,3.1,5.4,91,0.00,,,0.00,pywws,2013-07-20 18:03:00,
2013-07-20 19:08:00,65.3,62.6,30.29,West,270,0.7,3.8,91,0.00,,,0.00,pywws,2013-07-20 18:08:00,
2013-07-20 19:13:00,65.1,62.7,30.29,East,90,2.2,3.8,92,0.00,,,0.00,pywws,2013-07-20 18:13:00,
2013-07-20 19:18:00,65.1,62.7,30.30,SSE,158,2.2,4.5,92,0.00,,,0.00,pywws,2013-07-20 18:18:00,
2013-07-20 19:23:00,64.9,62.6,30.30,South,180,0.7,2.2,92,0.00,,,0.00,pywws,2013-07-20 18:23:00,
2013-07-20 19:28:00,64.6,62.5,30.30,East,90,2.2,3.8,93,0.00,,,0.00,pywws,2013-07-20 18:28:00,
2013-07-20 19:33:00,64.6,62.8,30.30,West,270,2.2,3.1,94,0.00,,,0.00,pywws,2013-07-20 18:33:00,
2013-07-20 19:38:00,64.4,62.6,30.30,SE,135,1.6,3.8,94,0.00,,,0.00,pywws,2013-07-20 18:38:00,
2013-07-20 19:43:00,64.4,62.6,30.30,East,90,2.2,4.5,94,0.00,,,0.00,pywws,2013-07-20 18:43:00,
2013-07-20 19:48:00,64.0,62.3,30.30,East,90,2.2,4.5,94,0.00,,,0.00,pywws,2013-07-20 18:48:00,
2013-07-20 20:02:00,63.9,62.4,30.30,SE,135,0.7,3.1,95,0.00,,,0.00,pywws,2013-07-20 19:02:00,
2013-07-20 20:03:00,63.7,62.2,30.30,SE,135,1.6,4.5,95,0.00,,,0.00,pywws,2013-07-20 19:03:00,
2013-07-20 20:08:00,63.7,62.2,30.30,East,90,1.6,5.4,95,0.00,,,0.00,pywws,2013-07-20 19:08:00,
2013-07-20 20:13:00,63.3,61.9,30.30,SE,135,3.1,5.4,95,0.00,,,0.00,pywws,2013-07-20 19:13:00,
2013-07-20 20:18:00,63.1,61.7,30.30,East,90,2.2,6.9,95,0.00,,,0.00,pywws,2013-07-20 19:18:00,
2013-07-20 20:23:00,63.0,61.5,30.30,NE,45,0.7,2.2,95,0.00,,,0.00,pywws,2013-07-20 19:23:00,
2013-07-20 20:28:00,62.8,61.3,30.30,South,180,4.5,6.0,95,0.00,,,0.00,pywws,2013-07-20 19:28:00,
2013-07-20 20:33:00,62.6,61.4,30.31,SE,135,0.7,3.1,96,0.00,,,0.00,pywws,2013-07-20 19:33:00,
2013-07-20 20:38:00,62.4,61.3,30.31,South,180,1.6,3.8,96,0.00,,,0.00,pywws,2013-07-20 19:38:00,
2013-07-20 20:43:00,62.4,61.3,30.31,East,90,1.6,2.2,96,0.00,,,0.00,pywws,2013-07-20 19:43:00,
2013-07-20 20:48:00,62.2,61.1,30.30,ESE,112,1.6,3.1,96,0.00,,,0.00,pywws,2013-07-20 19:48:00,
2013-07-20 21:01:00,62.1,61.2,30.30,South,180,1.6,3.8,97,0.00,,,0.00,pywws,2013-07-20 20:01:00,
2013-07-20 21:03:00,61.9,61.0,30.30,SE,135,0.7,2.2,97,0.00,,,0.00,pywws,2013-07-20 20:03:00,
2013-07-20 21:08:00,61.7,61.1,30.30,South,180,1.6,3.8,98,0.00,,,0.00,pywws,2013-07-20 20:08:00,
2013-07-20 21:13:00,61.7,61.1,30.31,NE,45,1.6,5.4,98,0.00,,,0.00,pywws,2013-07-20 20:13:00,
2013-07-20 21:18:00,61.5,61.2,30.31,East,90,2.2,4.5,99,0.00,,,0.00,pywws,2013-07-20 20:18:00,
2013-07-20 21:23:00,61.2,60.9,30.31,East,90,0.7,3.8,99,0.00,,,0.00,pywws,2013-07-20 20:23:00,
2013-07-20 21:28:00,61.0,60.7,30.31,SE,135,3.1,4.5,99,0.00,,,0.00,pywws,2013-07-20 20:28:00,
2013-07-20 21:33:00,60.8,60.5,30.32,East,90,2.2,5.4,99,0.00,,,0.00,pywws,2013-07-20 20:33:00,
2013-07-20 21:38:00,60.8,60.5,30.31,East,90,2.2,6.0,99,0.00,,,0.00,pywws,2013-07-20 20:38:00,
2013-07-20 21:43:00,60.6,60.3,30.32,West,270,2.2,5.4,99,0.00,,,0.00,pywws,2013-07-20 20:43:00,
2013-07-20 21:48:00,60.4,60.2,30.32,SE,135,1.6,3.1,99,0.00,,,0.00,pywws,2013-07-20 20:48:00,
2013-07-20 22:02:00,60.3,60.0,30.31,SE,135,2.2,3.8,99,0.00,,,0.00,pywws,2013-07-20 21:02:00,
2013-07-20 22:03:00,59.9,59.6,30.32,NW,315,1.6,3.8,99,0.00,,,0.00,pywws,2013-07-20 21:03:00,
2013-07-20 22:08:00,59.9,59.6,30.31,SE,135,2.2,3.8,99,0.00,,,0.00,pywws,2013-07-20 21:08:00,
2013-07-20 22:13:00,59.7,59.4,30.32,East,90,3.1,4.5,99,0.00,,,0.00,pywws,2013-07-20 21:13:00,
2013-07-20 22:18:00,59.7,59.4,30.31,SW,225,2.2,5.4,99,0.00,,,0.00,pywws,2013-07-20 21:18:00,
2013-07-20 22:23:00,59.5,59.3,30.31,South,180,3.8,6.9,99,0.00,,,0.00,pywws,2013-07-20 21:23:00,
2013-07-20 22:28:00,59.5,59.3,30.32,SE,135,2.2,4.5,99,0.00,,,0.00,pywws,2013-07-20 21:28:00,
2013-07-20 22:33:00,59.4,59.1,30.32,East,90,2.2,4.5,99,0.00,,,0.00,pywws,2013-07-20 21:33:00,
2013-07-20 22:38:00,59.4,59.1,30.32,West,270,2.2,3.8,99,0.00,,,0.00,pywws,2013-07-20 21:38:00,
2013-07-20 22:43:00,59.4,59.1,30.32,NW,315,1.6,8.3,99,0.00,,,0.00,pywws,2013-07-20 21:43:00,
2013-07-20 22:48:00,59.2,58.9,30.32,SSE,158,1.6,3.8,99,0.00,,,0.00,pywws,2013-07-20 21:48:00,
2013-07-20 23:01:00,59.2,58.9,30.32,SE,135,2.2,4.5,99,0.00,,,0.00,pywws,2013-07-20 22:01:00,
2013-07-20 23:03:00,59.0,58.7,30.32,SE,135,0.0,3.1,99,0.00,,,0.00,pywws,2013-07-20 22:03:00,
2013-07-20 23:08:00,59.0,58.7,30.32,NE,45,1.6,3.1,99,0.00,,,0.00,pywws,2013-07-20 22:08:00,
2013-07-20 23:13:00,58.8,58.5,30.32,SSE,158,1.6,2.2,99,0.00,,,0.00,pywws,2013-07-20 22:13:00,
2013-07-20 23:18:00,58.6,58.4,30.32,SE,135,0.7,3.1,99,0.00,,,0.00,pywws,2013-07-20 22:18:00,
2013-07-20 23:23:00,58.6,58.4,30.32,SE,135,1.6,4.5,99,0.00,,,0.00,pywws,2013-07-20 22:23:00,
2013-07-20 23:28:00,58.5,58.2,30.32,NE,45,0.7,3.1,99,0.00,,,0.00,pywws,2013-07-20 22:28:00,
2013-07-20 23:33:00,58.3,58.0,30.32,SE,135,0.7,3.8,99,0.00,,,0.00,pywws,2013-07-20 22:33:00,
2013-07-20 23:38:00,58.3,58.0,30.32,South,180,0.7,2.2,99,0.00,,,0.00,pywws,2013-07-20 22:38:00,
2013-07-20 23:43:00,58.1,57.8,30.32,SE,135,0.7,3.1,99,0.00,,,0.00,pywws,2013-07-20 22:43:00,
2013-07-20 23:48:00,58.1,57.8,30.32,NW,315,0.7,3.1,99,0.00,,,0.00,pywws,2013-07-20 22:48:00,